Date String (YYYY-MM-DD hh:mm:ss) UTC,Instrument flags,absolute air pressure of the measurement (hPa),sample flow rate (lpm),inlet stack bypass flow (lpm),air temperature of the measurement (°C),ambient temperature measured by the external sensor (°C),aerosol sample conditioner tube jacket temperature (°C),OPC LED temperature (°C),internal box temperature (°C),relative humidity of the measurement (%),span deviation,mass concentration of particles derived from Lorenz-Mie calculation of OPC scattering (μg/m³),mass concentration of particles derived from Lorenz-Mie calculation of OPC scattering (μg/m³),mass concentration of particles derived from Lorenz-Mie calculation of OPC scattering (μg/m³)
DateTimeUTC,F1_M11,P_M11,Q1_M11,Q2_M11,T1_M11,T2_M11,T3_M11,T4_M11,T5_M11,U1_M11,ZSPAN_M11,X2_M11,X0_M11,X1_M11
2024-01-29 02:00:00,SystemResetWarning,0837.2,5.01,000.00,026.1,025.1,000.0,034.4,027.6,11.5,0000.0,0002.26,0003.39,0001.83
2024-01-29 02:01:00,SystemResetWarning,0837.2,5.01,000.00,026.2,025.1,000.0,034.4,027.6,11.6,0000.0,0002.20,0003.32,0001.81
2024-01-29 02:02:00,SystemResetWarning,0837.2,5.00,000.00,026.2,025.1,000.0,034.4,027.6,11.6,0000.0,0002.19,0003.29,0001.80
2024-01-29 02:03:00,SystemResetWarning,0837.2,5.00,000.00,026.2,025.2,000.0,034.4,027.6,11.6,0000.0,0002.21,0003.80,0001.78
2024-01-29 02:04:00,SystemResetWarning,0837.2,4.99,000.00,026.2,025.2,000.0,034.4,027.6,11.5,0000.0,0002.21,0004.57,0001.76
2024-01-29 02:05:00,SystemResetWarning,0837.3,5.00,000.00,026.2,025.2,000.0,034.4,027.6,11.5,0000.0,0002.21,0004.56,0001.74
2024-01-29 02:06:00,SystemResetWarning,0837.2,5.00,000.00,026.2,025.2,000.0,034.4,027.6,11.5,0000.0,0002.16,0005.17,0001.72
2024-01-29 02:07:00,SystemResetWarning,0837.2,5.00,000.00,026.2,025.2,000.0,034.4,027.6,11.5,0000.0,0002.12,0005.90,0001.70
2024-01-29 02:08:00,SystemResetWarning,0837.2,5.01,000.00,026.2,025.2,000.0,034.4,027.6,11.5,0000.0,0002.08,0006.09,0001.66
2024-01-29 02:09:00,SystemResetWarning,0837.3,5.00,000.00,026.2,025.2,000.0,034.4,027.6,11.6,0000.0,0002.12,0006.60,0001.63
2024-01-29 02:10:00,SystemResetWarning,0837.2,5.00,000.00,026.2,025.2,000.0,034.4,027.6,11.7,0000.0,0002.07,0007.76,0001.60
2024-01-29 02:11:00,SystemResetWarning,0837.2,5.00,000.00,026.2,025.1,000.0,034.4,027.6,11.8,0000.0,0002.01,0007.70,0001.55
2024-01-29 02:12:00,SystemResetWarning,0837.2,5.00,000.00,026.2,025.1,000.0,034.4,027.6,11.8,0000.0,0002.02,0008.03,0001.52
2024-01-29 02:13:00,SystemResetWarning,0837.2,5.00,000.00,026.2,025.1,000.0,034.4,027.6,11.7,0000.0,0001.99,0008.42,0001.50
2024-01-29 02:14:00,SystemResetWarning,0837.2,5.00,000.00,026.2,025.1,000.0,034.4,027.6,11.6,0000.0,0001.95,0008.38,0001.48
2024-01-29 02:15:00,SystemResetWarning,0837.2,5.00,000.00,026.2,025.1,000.0,034.4,027.6,11.5,0000.0,0001.93,0007.78,0001.45
2024-01-29 02:16:00,SystemResetWarning,0837.2,5.00,000.00,026.2,025.1,000.0,034.4,027.6,11.5,0000.0,0001.91,0007.73,0001.43
2024-01-29 02:17:00,SystemResetWarning,0837.2,5.00,000.00,026.2,025.1,000.0,034.5,027.6,11.5,0000.0,0001.92,0007.64,0001.41
2024-01-29 02:18:00,SystemResetWarning,0837.3,5.00,000.00,026.2,025.1,000.0,034.5,027.6,11.4,0000.0,0001.89,0006.90,0001.38
2024-01-29 02:19:00,SystemResetWarning,0837.2,5.00,000.00,026.2,025.1,000.0,034.5,027.6,11.4,0000.0,0001.83,0006.29,0001.34
2024-01-29 02:20:00,SystemResetWarning,0837.2,5.00,000.00,026.2,025.1,000.0,034.5,027.6,11.4,0000.0,0001.72,0005.95,0001.29
2024-01-29 02:21:00,SystemResetWarning,0837.2,5.00,000.00,026.2,025.0,000.0,034.5,027.6,11.4,0000.0,0001.67,0004.29,0001.26
2024-01-29 02:22:00,SystemResetWarning,0837.2,5.00,000.00,026.2,025.0,000.0,034.5,027.6,11.4,0000.0,0001.68,0004.15,0001.24
2024-01-29 02:23:00,SystemResetWarning,0837.2,5.00,000.00,026.2,025.0,000.0,034.5,027.6,11.4,0000.0,0001.61,0003.91,0001.21
2024-01-29 02:24:00,SystemResetWarning,0837.2,5.00,000.00,026.2,025.0,000.0,034.5,027.6,11.6,0000.0,0001.54,0002.69,0001.18
2024-01-29 02:25:00,SystemResetWarning,0837.2,5.01,000.00,026.2,025.0,000.0,034.4,027.5,11.5,0000.0,0001.50,0002.54,0001.14
2024-01-29 02:26:00,SystemResetWarning,0837.2,5.00,000.00,026.2,025.0,000.0,034.4,027.6,11.4,0000.0,0001.48,0002.56,0001.12
2024-01-29 02:27:00,SystemResetWarning,0837.2,5.00,000.00,026.2,025.0,000.0,034.4,027.6,11.4,0000.0,0001.42,0002.86,0001.10
2024-01-29 02:28:00,SystemResetWarning,0837.2,5.00,000.00,026.2,025.0,000.0,034.4,027.6,11.4,0000.0,0001.37,0003.05,0001.07
2024-01-29 02:29:00,SystemResetWarning,0837.2,5.00,000.00,026.2,025.0,000.0,034.4,027.5,11.4,0000.0,0001.37,0003.08,0001.05
2024-01-29 02:30:00,SystemResetWarning,0837.2,5.00,000.00,026.2,025.0,000.0,034.4,027.5,11.5,0000.0,0001.38,0003.04,0001.04
2024-01-29 02:31:00,SystemResetWarning,0837.2,5.00,000.00,026.2,025.0,000.0,034.4,027.6,11.5,0000.0,0001.38,0003.17,0001.03
2024-01-29 02:32:00,SystemResetWarning,0837.1,5.00,000.00,026.2,025.0,000.0,034.4,027.5,11.5,0000.0,0001.41,0003.23,0001.02
2024-01-29 02:33:00,SystemResetWarning,0837.0,5.00,000.00,026.2,025.0,000.0,034.4,027.5,11.4,0000.0,0001.36,0003.81,0001.00
2024-01-29 02:34:00,SystemResetWarning,0837.0,5.00,000.00,026.1,025.0,000.0,034.4,027.5,11.4,0000.0,0001.34,0003.97,0000.99
2024-01-29 02:35:00,SystemResetWarning,0837.0,5.00,000.00,026.1,024.9,000.0,034.4,027.5,11.4,0000.0,0001.35,0004.62,0000.99
2024-01-29 02:36:00,SystemResetWarning,0837.0,5.00,000.00,026.1,024.9,000.0,034.4,027.5,11.4,0000.0,0001.32,0005.12,0000.99
2024-01-29 02:37:00,SystemResetWarning,0836.9,5.00,000.00,026.1,024.9,000.0,034.4,027.5,11.4,0000.0,0001.30,0005.04,0000.98
2024-01-29 02:38:00,SystemResetWarning,0836.9,5.00,000.00,026.1,024.9,000.0,034.4,027.5,11.4,0000.0,0001.30,0004.59,0000.99
2024-01-29 02:39:00,SystemResetWarning,0836.9,5.00,000.00,026.1,024.9,000.0,034.4,027.5,11.4,0000.0,0001.26,0004.21,0000.98
2024-01-29 02:40:00,SystemResetWarning,0836.9,5.00,000.00,026.1,024.9,000.0,034.4,027.5,11.5,0000.0,0001.23,0005.08,0000.98
2024-01-29 02:41:00,SystemResetWarning,0837.0,4.99,000.00,026.1,024.9,000.0,034.4,027.5,11.5,0000.0,0001.26,0006.56,0000.99
2024-01-29 02:42:00,SystemResetWarning,0836.9,5.00,000.00,026.1,024.9,000.0,034.4,027.5,11.6,0000.0,0001.28,0006.53,0001.00
2024-01-29 02:43:00,SystemResetWarning,0837.0,5.00,000.00,026.1,024.8,000.0,034.4,027.4,11.7,0000.0,0001.23,0006.33,0000.99
2024-01-29 02:44:00,SystemResetWarning,0836.9,5.00,000.00,026.1,024.8,000.0,034.4,027.4,11.8,0000.0,0001.20,0005.69,0000.98
2024-01-29 02:45:00,SystemResetWarning,0836.9,5.01,000.00,026.1,024.8,000.0,034.4,027.4,11.7,0000.0,0001.22,0005.33,0000.97
2024-01-29 02:46:00,SystemResetWarning,0836.9,5.01,000.00,026.1,024.8,000.0,034.4,027.4,11.6,0000.0,0001.20,0004.86,0000.95
2024-01-29 02:47:00,SystemResetWarning,0836.9,5.01,000.00,026.1,024.8,000.0,034.4,027.4,11.7,0000.0,0001.23,0004.19,0000.96
2024-01-29 02:48:00,SystemResetWarning,0837.0,5.00,000.00,026.0,024.8,000.0,034.4,027.4,11.7,0000.0,0001.24,0004.19,0000.96
2024-01-29 02:49:00,SystemResetWarning,0837.0,5.00,000.00,026.0,024.8,000.0,034.4,027.4,11.6,0000.0,0001.21,0004.13,0000.95
2024-01-29 02:50:00,SystemResetWarning,0836.9,5.00,000.00,026.0,024.8,000.0,034.4,027.4,11.6,0000.0,0001.22,0004.24,0000.95
2024-01-29 02:51:00,SystemResetWarning,0837.0,5.00,000.00,026.0,024.7,000.0,034.4,027.4,11.5,0000.0,0001.23,0003.63,0000.96
2024-01-29 02:52:00,SystemResetWarning,0837.0,4.99,000.00,026.0,024.7,000.0,034.4,027.4,11.5,0000.0,0001.18,0001.90,0000.95
2024-01-29 02:53:00,SystemResetWarning,0837.0,5.00,000.00,026.0,024.7,000.0,034.3,027.4,11.5,0000.0,0001.14,0001.74,0000.94
2024-01-29 02:54:00,SystemResetWarning,0837.0,4.99,000.00,026.0,024.7,000.0,034.3,027.4,11.7,0000.0,0001.16,0002.40,0000.94
2024-01-29 02:55:00,SystemResetWarning,0837.0,5.00,000.00,026.0,024.7,000.0,034.3,027.4,11.7,0000.0,0001.17,0002.44,0000.94
2024-01-29 02:56:00,SystemResetWarning,0836.9,5.01,000.00,026.0,024.7,000.0,034.3,027.4,11.7,0000.0,0001.19,0002.51,0000.94
2024-01-29 02:57:00,SystemResetWarning,0836.9,5.01,000.00,026.0,024.7,000.0,034.3,027.4,11.7,0000.0,0001.22,0002.69,0000.95
2024-01-29 02:58:00,SystemResetWarning,0837.0,5.00,000.00,026.0,024.7,000.0,034.3,027.4,11.7,0000.0,0001.21,0002.83,0000.93
2024-01-29 02:59:00,SystemResetWarning,0836.9,5.00,000.00,026.0,024.7,000.0,034.3,027.3,11.7,0000.0,0001.22,0002.88,0000.91
